| time (UTC) | temp F | wind direction | speed MPH | gust MPH | rain 1hr in | rain 24hr in | rain mn in | humidity % | barometer mb |
| 20260505193532 | 68 | 153 | 5.0 | 13.0 | 0.00 | 0.09 | 0.09 | 49 | 1011.7 |
| 20260505193057 | 67 | 189 | 5.0 | 19.0 | 0.00 | 0.09 | 0.09 | 50 | 1011.7 |
| 20260505192542 | 67 | 201 | 7.0 | 19.0 | 0.00 | 0.09 | 0.09 | 49 | 1011.8 |
| 20260505192049 | 67 | 189 | 8.0 | 18.0 | 0.00 | 0.09 | 0.09 | 50 | 1011.9 |
| 20260505191551 | 66 | 194 | 5.0 | 14.0 | 0.00 | 0.09 | 0.09 | 54 | 1011.9 |
| 20260505191031 | 66 | 203 | 7.0 | 17.0 | 0.00 | 0.09 | 0.09 | 54 | 1011.9 |
| 20260505190538 | 65 | 205 | 9.0 | 17.0 | 0.00 | 0.09 | 0.09 | 54 | 1011.9 |
| 20260505190056 | 65 | 215 | 8.0 | 17.0 | 0.00 | 0.09 | 0.09 | 54 | 1011.9 |
| 20260505185539 | 65 | 224 | 8.0 | 19.0 | 0.00 | 0.09 | 0.09 | 53 | 1012.0 |
| 20260505185103 | 65 | 171 | 6.0 | 19.0 | 0.00 | 0.09 | 0.09 | 54 | 1012.2 |
| 20260505184545 | 65 | 198 | 3.0 | 14.0 | 0.00 | 0.09 | 0.09 | 56 | 1012.2 |
| 20260505184045 | 65 | 197 | 5.0 | 14.0 | 0.00 | 0.09 | 0.09 | 55 | 1012.1 |
| 20260505183530 | 65 | 195 | 4.0 | 13.0 | 0.00 | 0.09 | 0.09 | 56 | 1012.3 |
| 20260505183034 | 64 | 208 | 5.0 | 13.0 | 0.00 | 0.09 | 0.09 | 59 | 1012.3 |
| 20260505182559 | 63 | 215 | 7.0 | 16.0 | 0.00 | 0.09 | 0.09 | 59 | 1012.2 |
| 20260505182041 | 62 | 197 | 7.0 | 20.0 | 0.00 | 0.09 | 0.09 | 60 | 1012.1 |
| 20260505181544 | 62 | 196 | 7.0 | 17.0 | 0.00 | 0.09 | 0.09 | 61 | 1012.1 |
| 20260505181047 | 62 | 208 | 6.0 | 13.0 | 0.00 | 0.09 | 0.09 | 60 | 1012.4 |
| 20260505180548 | 62 | 216 | 3.0 | 12.0 | 0.00 | 0.09 | 0.09 | 62 | 1012.3 |
| 20260505180059 | 62 | 222 | 5.0 | 12.0 | 0.00 | 0.09 | 0.09 | 63 | 1012.3 |
| 20260505175542 | 62 | 212 | 5.0 | 10.0 | 0.00 | 0.09 | 0.09 | 63 | 1012.4 |
| 20260505175046 | 61 | 201 | 4.0 | 10.0 | 0.00 | 0.09 | 0.09 | 63 | 1012.2 |
| 20260505174548 | 61 | 172 | 2.0 | 7.0 | 0.00 | 0.09 | 0.09 | 64 | 1012.3 |
| 20260505174053 | 61 | 170 | 1.0 | 6.0 | 0.00 | 0.09 | 0.09 | 66 | 1012.4 |
| 20260505173553 | 61 | 166 | 0.0 | 6.0 | 0.00 | 0.09 | 0.09 | 66 | 1012.5 |
| 20260505173035 | 61 | 159 | 1.0 | 5.0 | 0.00 | 0.09 | 0.09 | 66 | 1012.5 |
| 20260505172600 | 61 | 155 | 0.0 | 6.0 | 0.00 | 0.09 | 0.09 | 67 | 1012.4 |
| 20260505172046 | 61 | 155 | 2.0 | 8.0 | 0.00 | 0.09 | 0.09 | 66 | 1012.6 |
| 20260505171531 | 61 | 185 | 4.0 | 8.0 | 0.00 | 0.09 | 0.09 | 67 | 1012.5 |
| 20260505171034 | 61 | 219 | 3.0 | 7.0 | 0.00 | 0.09 | 0.09 | 70 | 1012.6 |
| 20260505170542 | 60 | 219 | 0.0 | 3.0 | 0.00 | 0.09 | 0.09 | 73 | 1012.6 |
| 20260505170058 | 60 | 219 | 1.0 | 4.0 | 0.00 | 0.09 | 0.09 | 74 | 1012.6 |
| 20260505165601 | 60 | 219 | 0.0 | 6.0 | 0.00 | 0.09 | 0.09 | 73 | 1012.6 |
| 20260505165044 | 59 | 219 | 2.0 | 7.0 | 0.00 | 0.09 | 0.09 | 73 | 1012.6 |
| 20260505164549 | 59 | 220 | 3.0 | 8.0 | 0.00 | 0.09 | 0.09 | 77 | 1012.8 |
| 20260505164030 | 59 | 222 | 3.0 | 8.0 | 0.00 | 0.09 | 0.09 | 83 | 1012.7 |
| 20260505163538 | 58 | 230 | 2.0 | 6.0 | 0.00 | 0.09 | 0.09 | 87 | 1012.5 |
| 20260505163044 | 58 | 339 | 0.0 | 2.0 | 0.00 | 0.09 | 0.09 | 88 | 1012.5 |
| 20260505162547 | 57 | 339 | 0.0 | 1.0 | 0.00 | 0.09 | 0.09 | 88 | 1012.4 |
| 20260505162049 | 57 | 339 | 0.0 | 1.0 | 0.00 | 0.09 | 0.09 | 89 | 1012.3 |
| 20260505161535 | 57 | 339 | 0.0 | 1.0 | 0.01 | 0.09 | 0.09 | 89 | 1012.3 |
| 20260505161057 | 57 | 339 | 0.0 | 1.0 | 0.02 | 0.09 | 0.09 | 91 | 1012.3 |
| 20260505160540 | 56 | 339 | 0.0 | 1.0 | 0.03 | 0.09 | 0.09 | 91 | 1012.4 |
| 20260505153041 | 54 | 339 | 0.0 | 0.0 | 0.07 | 0.09 | 0.09 | 91 | 1012.2 |
| 20260505152544 | 54 | 339 | 0.0 | 0.0 | 0.07 | 0.09 | 0.09 | 90 | 1012.2 |
| 20260505152048 | 54 | 339 | 0.0 | 0.0 | 0.07 | 0.09 | 0.09 | 90 | 1012.3 |
| 20260505151534 | 54 | 339 | 0.0 | 0.0 | 0.06 | 0.08 | 0.08 | 90 | 1012.4 |
| 20260505151053 | 54 | 339 | 0.0 | 0.0 | 0.05 | 0.07 | 0.07 | 90 | 1012.4 |
| 20260505150530 | 54 | 339 | 0.0 | 1.0 | 0.04 | 0.06 | 0.06 | 90 | 1012.3 |
| 20260505150106 | 54 | 339 | 0.0 | 1.0 | 0.03 | 0.05 | 0.05 | 90 | 1012.3 |
| 20260505022046 | 67 | 218 | 3.0 | 13.0 | 0.00 | 0.00 | 0.00 | 40 | 1012.7 |
| 20260505021532 | 67 | 225 | 4.0 | 13.0 | 0.00 | 0.00 | 0.00 | 40 | 1012.8 |
| 20260505021032 | 67 | 191 | 6.0 | 11.0 | 0.00 | 0.00 | 0.00 | 40 | 1012.8 |
| 20260505020540 | 67 | 210 | 4.0 | 9.0 | 0.00 | 0.00 | 0.00 | 39 | 1012.5 |
| 20260505020118 | 67 | 211 | 5.0 | 9.0 | 0.00 | 0.00 | 0.00 | 39 | 1012.5 |
| 20260505015537 | 67 | 211 | 3.0 | 10.0 | 0.00 | 0.00 | 0.00 | 39 | 1012.7 |
| 20260505015042 | 67 | 212 | 5.0 | 12.0 | 0.00 | 0.00 | 0.00 | 39 | 1012.8 |
| 20260505014542 | 67 | 212 | 5.0 | 11.0 | 0.00 | 0.00 | 0.00 | 38 | 1012.8 |
| 20260505014047 | 68 | 213 | 3.0 | 10.0 | 0.00 | 0.00 | 0.00 | 38 | 1012.8 |
| 20260505013553 | 68 | 214 | 5.0 | 10.0 | 0.00 | 0.00 | 0.00 | 37 | 1012.7 |
| 20260505013029 | 68 | 216 | 4.0 | 8.0 | 0.00 | 0.00 | 0.00 | 37 | 1012.7 |
| 20260505012537 | 68 | 216 | 3.0 | 8.0 | 0.00 | 0.00 | 0.00 | 36 | 1012.8 |
| 20260505012043 | 68 | 217 | 3.0 | 8.0 | 0.00 | 0.00 | 0.00 | 36 | 1012.7 |
| 20260505011531 | 68 | 217 | 4.0 | 8.0 | 0.00 | 0.00 | 0.00 | 36 | 1012.7 |
| 20260505011053 | 68 | 219 | 2.0 | 12.0 | 0.00 | 0.00 | 0.00 | 36 | 1012.7 |
| 20260505010535 | 68 | 217 | 4.0 | 12.0 | 0.00 | 0.00 | 0.00 | 35 | 1012.7 |
| 20260505010112 | 68 | 179 | 5.0 | 12.0 | 0.00 | 0.00 | 0.00 | 35 | 1012.8 |
| 20260505005617 | 68 | 207 | 6.0 | 11.0 | 0.00 | 0.00 | 0.00 | 35 | 1012.9 |
| 20260505005031 | 69 | 214 | 3.0 | 9.0 | 0.00 | 0.00 | 0.00 | 34 | 1012.9 |
| 20260505004552 | 69 | 214 | 6.0 | 14.0 | 0.00 | 0.00 | 0.00 | 34 | 1013.1 |
| 20260505004030 | 69 | 212 | 8.0 | 14.0 | 0.00 | 0.00 | 0.00 | 34 | 1013.0 |
| 20260505003557 | 69 | 212 | 8.0 | 14.0 | 0.00 | 0.00 | 0.00 | 33 | 1013.1 |
| 20260505003035 | 69 | 158 | 3.0 | 11.0 | 0.00 | 0.00 | 0.00 | 33 | 1012.9 |
| 20260505002540 | 69 | 168 | 5.0 | 11.0 | 0.00 | 0.00 | 0.00 | 33 | 1012.8 |
| 20260505002044 | 70 | 197 | 3.0 | 9.0 | 0.00 | 0.00 | 0.00 | 33 | 1012.6 |
| 20260505001548 | 70 | 208 | 5.0 | 8.0 | 0.00 | 0.00 | 0.00 | 32 | 1012.3 |
| 20260505001050 | 70 | 212 | 3.0 | 9.0 | 0.00 | 0.00 | 0.00 | 32 | 1012.5 |
| 20260505000558 | 70 | 217 | 4.0 | 13.0 | 0.00 | 0.00 | 0.00 | 31 | 1012.6 |
| 20260505000109 | 70 | 218 | 5.0 | 13.0 | 0.00 | 0.00 | 0.00 | 31 | 1012.6 |
| 20260504235556 | 70 | 218 | 6.0 | 11.0 | 0.00 | 0.00 | 0.00 | 31 | 1012.4 |
| 20260504235032 | 70 | 208 | 7.0 | 11.0 | 0.00 | 0.00 | 0.00 | 30 | 1012.6 |
| 20260504234559 | 70 | 209 | 2.0 | 17.0 | 0.00 | 0.00 | 0.00 | 29 | 1012.7 |
| 20260504234118 | 71 | 203 | 8.0 | 17.0 | 0.00 | 0.00 | 0.00 | 29 | 1013.0 |
| 20260504233534 | 70 | 218 | 3.0 | 9.0 | 0.00 | 0.00 | 0.00 | 29 | 1012.9 |
| 20260504233039 | 71 | 216 | 2.0 | 9.0 | 0.00 | 0.00 | 0.00 | 29 | 1012.8 |
| 20260504232607 | 71 | 216 | 3.0 | 9.0 | 0.00 | 0.00 | 0.00 | 28 | 1012.8 |
| 20260504232050 | 71 | 215 | 2.0 | 12.0 | 0.00 | 0.00 | 0.00 | 29 | 1012.8 |
| 20260504231553 | 71 | 212 | 6.0 | 13.0 | 0.00 | 0.00 | 0.00 | 28 | 1012.6 |
| 20260504231031 | 71 | 161 | 6.0 | 13.0 | 0.00 | 0.00 | 0.00 | 29 | 1012.6 |
| 20260504230557 | 71 | 205 | 6.0 | 11.0 | 0.00 | 0.00 | 0.00 | 28 | 1012.8 |
| 20260504230131 | 71 | 183 | 4.0 | 8.0 | 0.00 | 0.00 | 0.00 | 29 | 1012.8 |
| 20260504225533 | 71 | 185 | 1.0 | 8.0 | 0.00 | 0.00 | 0.00 | 29 | 1012.9 |
| 20260504225058 | 71 | 183 | 4.0 | 8.0 | 0.00 | 0.00 | 0.00 | 28 | 1013.1 |
| 20260504224600 | 71 | 182 | 4.0 | 8.0 | 0.00 | 0.00 | 0.00 | 29 | 1013.2 |
| 20260504224043 | 71 | 184 | 4.0 | 8.0 | 0.00 | 0.00 | 0.00 | 30 | 1013.2 |
| 20260504223549 | 71 | 186 | 4.0 | 14.0 | 0.00 | 0.00 | 0.00 | 30 | 1013.3 |
| 20260504223055 | 71 | 175 | 6.0 | 14.0 | 0.00 | 0.00 | 0.00 | 30 | 1013.3 |
| 20260504222538 | 71 | 174 | 4.0 | 12.0 | 0.00 | 0.00 | 0.00 | 30 | 1013.3 |
| 20260504222039 | 71 | 195 | 4.0 | 12.0 | 0.00 | 0.00 | 0.00 | 31 | 1013.3 |
| 20260504221545 | 72 | 197 | 6.0 | 12.0 | 0.00 | 0.00 | 0.00 | 30 | 1013.4 |
| 20260504221032 | 72 | 216 | 2.0 | 11.0 | 0.00 | 0.00 | 0.00 | 30 | 1013.4 |
| 20260504220538 | 72 | 215 | 6.0 | 10.0 | 0.00 | 0.00 | 0.00 | 29 | 1013.5 |
| 20260504220115 | 72 | 216 | 4.0 | 9.0 | 0.00 | 0.00 | 0.00 | 31 | 1013.6 |
| 20260504215534 | 72 | 216 | 5.0 | 10.0 | 0.00 | 0.00 | 0.00 | 31 | 1013.7 |
| 20260504215039 | 72 | 218 | 3.0 | 8.0 | 0.00 | 0.00 | 0.00 | 33 | 1013.6 |
| 20260504214556 | 72 | 218 | 5.0 | 10.0 | 0.00 | 0.00 | 0.00 | 33 | 1013.5 |
| 20260504214033 | 72 | 218 | 4.0 | 12.0 | 0.00 | 0.00 | 0.00 | 32 | 1013.6 |
| 20260504213558 | 73 | 218 | 5.0 | 12.0 | 0.00 | 0.00 | 0.00 | 32 | 1013.6 |
| 20260504213038 | 73 | 228 | 4.0 | 11.0 | 0.00 | 0.00 | 0.00 | 32 | 1013.5 |
| 20260504212603 | 73 | 214 | 6.0 | 11.0 | 0.00 | 0.00 | 0.00 | 32 | 1013.5 |
| 20260504212106 | 73 | 216 | 6.0 | 11.0 | 0.00 | 0.00 | 0.00 | 32 | 1013.5 |
| 20260504211546 | 74 | 210 | 5.0 | 12.0 | 0.00 | 0.00 | 0.00 | 33 | 1013.5 |
| 20260504211054 | 74 | 204 | 4.0 | 12.0 | 0.00 | 0.00 | 0.00 | 33 | 1013.5 |
| 20260504210531 | 74 | 201 | 4.0 | 13.0 | 0.00 | 0.00 | 0.00 | 33 | 1013.5 |
| 20260504210107 | 74 | 211 | 3.0 | 13.0 | 0.00 | 0.00 | 0.00 | 33 | 1013.4 |
| 20260504205554 | 74 | 212 | 1.0 | 9.0 | 0.00 | 0.00 | 0.00 | 32 | 1013.4 |
| 20260504205030 | 74 | 206 | 3.0 | 9.0 | 0.00 | 0.00 | 0.00 | 32 | 1013.5 |
| 20260504204534 | 74 | 204 | 4.0 | 9.0 | 0.00 | 0.00 | 0.00 | 31 | 1013.6 |
| 20260504204056 | 74 | 182 | 6.0 | 8.0 | 0.00 | 0.00 | 0.00 | 30 | 1013.6 |
| 20260504203534 | 74 | 164 | 3.0 | 14.0 | 0.00 | 0.00 | 0.00 | 30 | 1013.7 |
| 20260504203041 | 74 | 215 | 3.0 | 13.0 | 0.00 | 0.00 | 0.00 | 29 | 1013.8 |
| 20260504202548 | 74 | 218 | 7.0 | 15.0 | 0.00 | 0.00 | 0.00 | 28 | 1013.9 |
| 20260504202054 | 74 | 208 | 8.0 | 15.0 | 0.00 | 0.00 | 0.00 | 28 | 1014.0 |
| 20260504201540 | 75 | 224 | 8.0 | 13.0 | 0.00 | 0.00 | 0.00 | 28 | 1013.8 |
| 20260504201100 | 75 | 208 | 6.0 | 11.0 | 0.00 | 0.00 | 0.00 | 28 | 1013.8 |
| 20260504200533 | 75 | 210 | 4.0 | 12.0 | 0.00 | 0.00 | 0.00 | 29 | 1013.5 |
| 20260504200105 | 75 | 208 | 6.0 | 12.0 | 0.00 | 0.00 | 0.00 | 28 | 1013.2 |
| 20260504195531 | 76 | 197 | 3.0 | 9.0 | 0.00 | 0.00 | 0.00 | 29 | 1013.2 |
| 20260504195036 | 76 | 204 | 3.0 | 13.0 | 0.00 | 0.00 | 0.00 | 30 | 1013.1 |
| 20260504194543 | 76 | 206 | 5.0 | 13.0 | 0.00 | 0.00 | 0.00 | 29 | 1013.1 |
| 20260504194050 | 76 | 203 | 5.0 | 12.0 | 0.00 | 0.00 | 0.00 | 29 | 1013.2 |